• Processing (Info)

  • MPEC 2005-U30 : 2005 UO

    The following Minor Planet Electronic Circular may be linked-to from your own Web pages, but must not otherwise be redistributed electronically.

    A form allowing access to any MPEC is at the bottom of this page.


    Read MPEC 2005-U29 Read MPEC 2005-U31


    M.P.E.C. 2005-U30                                Issued 2005 Oct. 24, 18:08 UT
    
         The Minor Planet Electronic Circulars contain information on unusual
             minor planets and routine data on comets.  They are published
       on behalf of Commission 20 of the International Astronomical Union by the
              Minor Planet Center, Smithsonian Astrophysical Observatory,
                              Cambridge, MA 02138, U.S.A.
    
                      Supported in part by the Brinson Foundation
                      Supported in part by the TABASGO Foundation
                 Prepared using the Tamkin Foundation Computer Network
    
                                  MPC@CFA.HARVARD.EDU
              URL http://cfa-www.harvard.edu/iau/mpc.html  ISSN 1523-6714
    
                                        2005 UO
    
    Observations:
         K05U00O* C2005 10 23.31641 01 26 14.92 +20 29 19.6          18.7 V EU030703
         K05U00O  C2005 10 23.32628 01 26 12.08 +20 29 06.7          18.8 V EU030703
         K05U00O  C2005 10 23.33612 01 26 09.31 +20 28 54.6          18.9 V EU030703
         K05U00O  C2005 10 23.34596 01 26 06.50 +20 28 42.6          18.7 V EU030703
         K05U00O  C2005 10 23.39671 01 25 52.35 +20 27 37.9          18.7 V EU030703
         K05U00O  C2005 10 23.40635 01 25 49.65 +20 27 25.4          18.7 V EU030703
         K05U00O  C2005 10 23.41599 01 25 47.10 +20 27 13.3          18.7 V EU030703
         K05U00O  C2005 10 23.42566 01 25 44.40 +20 27 00.6          18.8 V EU030703
         K05U00O  C2005 10 23.85938 01 23 59.87 +20 18 22.0          18.8 R EU030143
         K05U00O  C2005 10 23.86346 01 23 58.81 +20 18 18.3          18.5 R EU030143
         K05U00O  C2005 10 23.86732 01 23 57.82 +20 18 14.2          18.7 R EU030143
         K05U00O 5C2005 10 24.26366 01 22 23.61 +20 10 59.8          18.8 R EU030673
         K05U00O 5C2005 10 24.26701 01 22 22.78 +20 10 56.5                 EU030673
         K05U00O 5C2005 10 24.27106 01 22 21.72 +20 10 51.6                 EU030673
         K05U00O 5C2005 10 24.28067 01 22 19.34 +20 10 41.5                 EU030673
    
    Observer details:
    143 Gnosca.  Observer S. Sposetti.  0.40-m f/4 reflector + CCD.
    673 Table Mountain Observatory, Wrightwood.  Observer J. Young.  0.6-m f/16
        Cassegrain + CCD.
    703 Catalina Sky Survey.  Observer E. J. Christensen.  Measurers E. C. Beshore,
        E. J. Christensen, G. J. Garradd, A. D. Grauer, R. E. Hill, R. A. Kowalski,
        S. M. Larson, R. H. McNaught.  0.68-m Schmidt + CCD.
    
    Orbital elements:
    2005 UO                                                              PHA 0.002
    Epoch 2005 Aug. 18.0 TT = JDT 2453600.5                 MPC
    M   1.00832              (2000.0)            P               Q
    n   0.63635258     Peri.  258.43570     +0.13241194     +0.99022401
    a   1.3386617      Node    19.33852     -0.84996535     +0.13619749
    e   0.5757118      Incl.    7.61067     -0.50992743     +0.03011082
    P   1.55           H   22.0           G   0.15           U   9
    Residuals in seconds of arc
    051023 703  0.1+  0.4+    051023 703  0.4-  0.2-    051023 143  0.1+  0.1+
    051023 703  0.3-  0.2-    051023 703  0.9+  0.1+    051024 673  0.2+  0.1+
    051023 703  0.0   0.0     051023 703  0.0   0.1-    051024 673  0.2+  0.5+
    051023 703  0.4-  0.3+    051023 143  0.0   0.9-    051024 673  0.4-  0.0
    051023 703  0.2+  0.0     051023 143  0.0   0.1-    051024 673  0.2-  0.4+
    
    Ephemeris:
    2005 UO                  a,e,i = 1.34, 0.58, 8                   q = 0.5680
    Date    TT    R. A. (2000) Decl.     Delta      r     Elong.  Phase     V
    2005 10 17    02 15.82   +23 32.5    0.0855   1.078   161.6    17.0    17.7
    2005 10 22    01 32.65   +20 58.1    0.134    1.127   169.5     9.3    18.5
    2005 10 27    01 13.67   +19 26.7    0.187    1.176   165.9    11.9    19.4
    2005 11 01    01 03.92   +18 28.2    0.242    1.223   160.2    16.0    20.2
    2005 11 06    00 58.85   +17 48.8    0.299    1.268   154.7    19.5    20.9
    2005 11 11    00 56.61   +17 22.1    0.360    1.313   149.5    22.5    21.4
    2005 11 16    00 56.28   +17 04.9    0.422    1.356   144.6    25.0    21.9
    
    Kyle E. Smalley              (C) Copyright 2005 MPC           M.P.E.C. 2005-U30
    

    Read MPEC 2005-U29 Read MPEC 2005-U31


    MPEC number:

    Enter an MPEC number in one of the following forms:

    • 1997-B01 (the full form)
    • J97B01 (the packed version of the full form)
    • B01 (the abbreviated form)